This is the latest recevied weather packets stored in our database for station/object YO6SAY-10. If no packets are shown the sender has not sent any weather packets the latest 10 day(s).
| Time | Temp. | Humidity | Pressure | Rain* | Wind** | Luminosity | Snow |
|---|---|---|---|---|---|---|---|
| 1777390101 | 23.33° C | 29% | 949.9 hPa | - | - | - | - |
| 1777389201 | 23.89° C | 28% | 949.9 hPa | - | - | - | - |
| 1777388301 | 23.89° C | 28% | 949.8 hPa | - | - | - | - |
| 1777387401 | 25° C | 28% | 949.8 hPa | - | - | - | - |
| 1777386501 | 23.89° C | 29% | 949.8 hPa | - | - | - | - |
| 1777385601 | 24.44° C | 28% | 949.8 hPa | - | - | - | - |
| 1777384700 | 22.22° C | 30% | 949.7 hPa | - | - | - | - |
| 1777383800 | 21.67° C | 30% | 949.7 hPa | - | - | - | - |
| 1777382900 | 21.67° C | 30% | 949.9 hPa | - | - | - | - |
| 1777382000 | 20.56° C | 30% | 949.9 hPa | - | - | - | - |
| 1777381100 | 20.56° C | 32% | 950 hPa | - | - | - | - |
| 1777380200 | 20.56° C | 32% | 950.2 hPa | - | - | - | - |
| 1777379300 | 19.44° C | 34% | 950.2 hPa | - | - | - | - |
| 1777378399 | 17.22° C | 34% | 950.3 hPa | - | - | - | - |
| 1777377499 | 16.11° C | 34% | 950.6 hPa | - | - | - | - |
| 1777376599 | 15.56° C | 35% | 950.7 hPa | - | - | - | - |
| 1777375699 | 15.56° C | 35% | 950.7 hPa | - | - | - | - |
| 1777374799 | 15° C | 37% | 950.8 hPa | - | - | - | - |
| 1777373898 | 15° C | 38% | 950.9 hPa | - | - | - | - |
| 1777372998 | 15° C | 38% | 950.9 hPa | - | - | - | - |
| 1777372097 | 14.44° C | 37% | 951 hPa | - | - | - | - |
| 1777371197 | 14.44° C | 37% | 951.1 hPa | - | - | - | - |
| 1777370297 | 13.89° C | 37% | 951.2 hPa | - | - | - | - |
| 1777369397 | 13.89° C | 36% | 951.2 hPa | - | - | - | - |
| 1777368496 | 13.89° C | 37% | 951.4 hPa | - | - | - | - |
* Rain since midnight (hover to see other rain measurements)
** Current wind speed in m/s (hover to see current wind gust speed)